Location: Newark
(35.2672°N, 80.7344°W)
Time: 17:47:37
(UTC+00:00)

Tiros 1 - Pass Details

Date: 22 January 2020
Orbit: 631 x 664 km, 48.4° (Epoch: 22 February)

Event Time Altitude Azimuth Distance (km) Brightness Sun altitude
Rises 00:16:37 0° 311° (NW) 2,982 11.1 -19.7°
Reaches altitude 10° 00:19:11 10° 321° (NW) 2,073 10.1 -20.2°
Enters shadow 00:23:18 31° 21° (NNE) 1,149 8.1 -21.0°
Maximum altitude 00:23:27 31° 25° (NNE) 1,147 - -21.1°
Drops below altitude 10° 00:27:44 10° 88° (E) 2,077 - -21.9°
Sets 00:30:18 0° 98° (E) 2,988 - -22.5°
